Waarnemingen

Advertentie
Mijn weer
Maastricht, Nederland (6380): temperatuur & dauwpunt: 22.05.2017 20:00:00 - 28.05.2017 20:00:00 (CEST)Maastricht, Nederland (6380): temperatuur 5cm: 22.05.2017 20:00:00 - 28.05.2017 20:00:00 (CEST)Maastricht, Nederland (6380): windsnelheid & windstoten: 22.05.2017 20:00:00 - 28.05.2017 20:00:00 (CEST)Maastricht, Nederland (6380): windrichting: 22.05.2017 20:00:00 - 28.05.2017 20:00:00 (CEST)Maastricht, Nederland (6380): luchtdruk: 22.05.2017 20:00:00 - 28.05.2017 20:00:00 (CEST)Maastricht, Nederland (6380): zicht: 22.05.2017 20:00:00 - 28.05.2017 20:00:00 (CEST)Maastricht, Nederland (6380): neerslag: 22.05.2017 20:00:00 - 28.05.2017 20:00:00 (CEST)
Datum & Tijd tt [°C] td [°C] tt 5cm [°C] ff [km/u] ff [kn] fx [km/u] fx [kn] dd ppp [hPa] vv [km] rr [mm]
28.05.2017 20:00:00 26,4 17,6 25,9 11 6 18 10 NNO 1016,1 10 0,0
28.05.2017 19:00:00 26,6 17,9 26,4 8 4 14 8 NO 1016,3 10 0,0
28.05.2017 18:00:00 27,7 18,0 29,2 9 5 22 12 NO 1016,7 10 0,0
28.05.2017 17:00:00 27,0 17,1 28,1 11 6 22 12 O 1017,0 24 0,0
28.05.2017 16:00:00 27,5 17,1 28,8 5 3 18 10 NO 1017,2 10 0,0
28.05.2017 15:00:00 27,1 16,5 28,6 5 3 18 10 ONO 1017,5 10 0,0
28.05.2017 14:00:00 25,8 16,5 28,0 13 7 22 12 ONO 1017,9 10 0,0
28.05.2017 13:00:00 23,9 16,0 25,9 11 6 18 10 O 1018,1 10 0,0
28.05.2017 12:00:00 20,7 15,3 20,6 13 7 18 10 O 1018,6 10 0,0
28.05.2017 11:00:00 18,8 14,4 19,5 15 8 22 12 NO 1018,6 10 0,0
28.05.2017 10:00:00 18,7 14,8 18,9 16 9 25 14 NNW 1019,6 10 0,0
28.05.2017 09:00:00 19,6 14,5 19,5 8 4 14 8 - 1018,6 10 0,0
28.05.2017 08:00:00 19,5 15,2 18,9 9 5 14 8 NNO 1018,7 10 0,0
28.05.2017 07:00:00 16,9 15,1 14,6 5 3 7 4 NNW 1018,4 10 0,0
28.05.2017 06:00:00 16,7 15,6 14,0 0 0 7 4 N 1018,2 10 0,0
28.05.2017 05:00:00 17,1 15,2 14,4 4 2 7 4 W 1018,0 10 0,0
28.05.2017 04:00:00 16,7 15,3 14,1 5 3 7 4 ZO 1017,9 10 0,0
28.05.2017 03:00:00 17,3 15,6 15,6 4 2 7 4 - 1018,2 10 0,0
28.05.2017 02:00:00 18,7 15,4 17,1 9 5 14 8 N 1018,0 10 0,0
28.05.2017 01:00:00 19,4 17,1 18,3 8 4 25 14 NNW 1017,9 10 0,6
28.05.2017 00:00:00 22,0 17,0 21,1 15 8 25 14 NNW 1017,2 10 0,0
27.05.2017 23:00:00 23,8 17,2 22,1 8 4 25 14 WNW 1017,1 10 0,0
27.05.2017 22:00:00 25,1 14,0 20,6 5 3 11 6 W 1016,2 10 0,0
27.05.2017 21:00:00 27,3 13,2 25,0 4 2 11 6 - 1015,5 10 0,0
27.05.2017 20:00:00 29,4 12,1 29,0 8 4 22 12 WZW 1015,0 10 0,0
27.05.2017 19:00:00 30,6 12,1 31,1 13 7 25 14 WZW 1015,1 10 0,0
27.05.2017 18:00:00 31,3 12,4 32,5 15 8 22 12 Z 1015,2 10 0,0
27.05.2017 17:00:00 31,5 11,0 33,0 21 11 29 16 ZZW 1015,3 10 0,0
27.05.2017 16:00:00 31,3 9,3 33,3 13 7 32 18 Z 1015,4 10 0,0
27.05.2017 15:00:00 31,0 9,5 33,7 9 5 25 14 Z 1015,6 10 0,0
27.05.2017 14:00:00 30,2 9,3 32,8 15 8 29 16 ZZW 1015,9 10 0,0
27.05.2017 13:00:00 29,6 10,8 32,0 11 6 25 14 Z 1016,2 10 0,0
27.05.2017 12:00:00 28,6 10,6 31,1 15 8 22 12 ZO 1016,3 10 0,0
27.05.2017 11:00:00 27,1 10,5 28,8 15 8 25 14 Z 1016,7 10 0,0
27.05.2017 10:00:00 25,7 12,3 27,3 9 5 14 8 OZO 1017,3 10 0,0
27.05.2017 09:00:00 22,9 13,5 23,5 11 6 14 8 O 1017,3 10 0,0
27.05.2017 08:00:00 20,3 12,8 20,2 9 5 11 6 OZO 1017,5 10 0,0
27.05.2017 07:00:00 17,5 12,1 16,3 9 5 14 8 O 1017,5 10 0,0
27.05.2017 06:00:00 15,7 11,3 13,8 11 6 14 8 O 1017,6 10 0,0
27.05.2017 05:00:00 16,0 11,6 13,7 13 7 18 10 OZO 1017,6 10 0,0
27.05.2017 04:00:00 16,1 11,6 14,3 13 7 14 8 O 1017,4 10 0,0
27.05.2017 03:00:00 17,3 11,4 14,0 13 7 18 10 O 1017,4 10 0,0
27.05.2017 02:00:00 16,6 11,0 13,0 9 5 11 6 ONO 1017,6 10 0,0
27.05.2017 01:00:00 18,2 10,8 12,6 2 1 11 6 - 1017,8 10 0,0
27.05.2017 00:00:00 19,0 10,5 15,3 5 3 11 6 OZO 1017,8 10 0,0
26.05.2017 23:00:00 19,1 11,4 13,9 8 4 11 6 ONO 1018,0 10 0,0
26.05.2017 22:00:00 20,2 10,9 16,4 5 3 22 12 ONO 1018,0 10 0,0
26.05.2017 21:00:00 23,9 11,1 22,6 13 7 29 16 OZO 1017,4 10 0,0
26.05.2017 20:00:00 25,5 11,1 25,1 21 11 32 18 O 1017,5 10 0,0
26.05.2017 19:00:00 26,2 10,5 26,3 24 13 36 19 O 1017,7 10 0,0
26.05.2017 18:00:00 26,4 10,2 27,2 24 13 36 19 O 1018,0 10 0,0
26.05.2017 17:00:00 26,5 10,6 27,9 24 13 36 19 O 1018,5 10 0,0
26.05.2017 16:00:00 26,6 10,8 28,0 22 12 40 21 O 1019,0 10 0,0
26.05.2017 15:00:00 26,1 10,9 27,5 24 13 36 19 O 1019,7 10 0,0
26.05.2017 14:00:00 25,3 11,1 26,8 21 11 36 19 O 1020,3 10 0,0
26.05.2017 13:00:00 23,9 9,0 26,1 22 12 36 19 O 1020,9 10 0,0
26.05.2017 12:00:00 22,9 9,4 25,0 22 12 32 18 OZO 1021,6 10 0,0
26.05.2017 11:00:00 21,9 12,0 24,0 21 11 29 16 O 1021,9 10 0,0
26.05.2017 10:00:00 20,1 12,1 21,6 21 11 32 18 O 1022,3 10 0,0
26.05.2017 09:00:00 18,8 12,3 19,5 21 11 29 16 O 1022,2 10 0,0
26.05.2017 08:00:00 17,2 12,3 17,1 15 8 22 12 O 1022,2 10 0,0
26.05.2017 07:00:00 14,9 11,8 14,1 11 6 18 10 ONO 1022,2 10 0,0
26.05.2017 06:00:00 13,5 11,2 12,5 11 6 18 10 ONO 1022,1 10 0,0
26.05.2017 05:00:00 13,8 11,0 12,4 13 7 14 8 O 1021,9 10 0,0
26.05.2017 04:00:00 14,1 11,1 12,5 9 5 14 8 O 1021,9 10 0,0
26.05.2017 03:00:00 14,1 11,1 11,7 11 6 14 8 NO 1021,9 10 0,0
26.05.2017 02:00:00 15,3 11,2 12,4 8 4 11 6 O 1022,1 10 0,0
26.05.2017 01:00:00 16,3 11,4 10,6 8 4 11 6 O 1022,4 10 0,0
26.05.2017 00:00:00 16,5 11,3 12,9 11 6 11 6 ONO 1022,5 10 0,0
25.05.2017 23:00:00 17,8 11,3 15,8 11 6 18 10 ONO 1022,5 10 0,0
25.05.2017 22:00:00 19,3 11,3 17,6 13 7 18 10 NO 1022,5 10 0,0
25.05.2017 21:00:00 20,9 11,3 19,9 15 8 25 14 NO 1022,2 10 0,0
25.05.2017 20:00:00 22,1 10,7 21,9 21 11 29 16 NO 1022,2 10 0,0
25.05.2017 19:00:00 22,8 10,6 23,3 16 9 32 18 NO 1022,5 10 0,0
25.05.2017 18:00:00 23,3 10,9 24,4 18 10 29 16 NO 1022,8 10 0,0
25.05.2017 17:00:00 23,6 11,1 24,9 18 10 29 16 NO 1023,1 10 0,0
25.05.2017 16:00:00 23,1 10,7 25,0 15 8 25 14 NO 1023,5 10 0,0
25.05.2017 15:00:00 22,4 11,2 24,3 11 6 29 16 ONO 1024,2 10 0,0
25.05.2017 14:00:00 20,8 11,0 23,8 9 5 18 10 NO 1024,6 10 0,0
25.05.2017 13:00:00 20,0 10,3 22,5 5 3 18 10 - 1024,9 10 0,0
25.05.2017 12:00:00 18,5 10,4 21,2 8 4 14 8 NNO 1025,4 10 0,0
25.05.2017 11:00:00 17,4 9,5 19,9 9 5 18 10 NNO 1025,4 10 0,0
25.05.2017 10:00:00 15,5 10,9 17,1 8 4 14 8 NO 1025,5 10 0,0
25.05.2017 09:00:00 13,2 10,6 14,0 5 3 14 8 NO 1025,3 10 0,0
25.05.2017 08:00:00 12,3 11,4 12,8 8 4 18 10 NO 1024,9 6 0,0
25.05.2017 07:00:00 12,0 11,5 11,3 9 5 18 10 NO 1024,5 6 0,0
25.05.2017 06:00:00 10,6 10,2 8,8 5 3 11 6 N 1024,3 9 0,0
25.05.2017 05:00:00 11,3 10,5 10,0 8 4 14 8 N 1024,2 10 0,0
25.05.2017 04:00:00 11,5 10,6 9,4 8 4 11 6 N 1024,5 10 0,0
25.05.2017 03:00:00 11,9 10,7 10,0 4 2 11 6 - 1024,5 10 0,0
25.05.2017 02:00:00 13,0 11,5 11,4 5 3 11 6 NNW 1024,6 10 0,0
25.05.2017 01:00:00 14,2 11,9 12,9 8 4 14 8 NW 1024,7 10 0,0
25.05.2017 00:00:00 15,3 12,0 13,8 9 5 14 8 N 1024,6 10 0,0
24.05.2017 23:00:00 16,6 12,0 15,4 11 6 18 10 NNW 1024,3 10 0,0
24.05.2017 22:00:00 17,9 11,9 16,6 15 8 25 14 NNW 1024,0 10 0,0
24.05.2017 21:00:00 19,6 11,4 18,6 15 8 29 16 NNW 1023,6 10 0,0
24.05.2017 20:00:00 21,4 10,7 21,1 16 9 29 16 NW 1023,3 10 0,0
24.05.2017 19:00:00 22,5 10,5 22,2 13 7 29 16 NW 1023,2 10 0,0
24.05.2017 18:00:00 22,3 10,3 22,4 13 7 29 16 NNW 1023,4 10 0,0
24.05.2017 17:00:00 22,3 10,2 22,8 16 9 25 14 NW 1023,5 10 0,0
24.05.2017 16:00:00 22,3 11,2 23,5 13 7 25 14 NW 1023,7 10 0,0
24.05.2017 15:00:00 21,4 11,7 21,7 15 8 25 14 WNW 1024,0 10 0,0
24.05.2017 14:00:00 20,8 12,9 21,0 11 6 25 14 WNW 1024,0 10 0,0
24.05.2017 13:00:00 20,5 13,1 20,6 11 6 25 14 W 1024,1 10 0,0
24.05.2017 12:00:00 20,6 12,6 22,2 13 7 25 14 W 1024,3 10 0,0
24.05.2017 11:00:00 19,8 13,5 20,5 11 6 22 12 W 1024,4 10 0,0
24.05.2017 10:00:00 19,0 13,5 20,4 15 8 22 12 WZW 1024,6 10 0,0
24.05.2017 09:00:00 16,9 11,4 17,7 15 8 22 12 ZW 1024,5 10 0,0
24.05.2017 08:00:00 15,0 10,3 14,7 13 7 18 10 ZZW 1024,1 10 0,0
24.05.2017 07:00:00 12,7 9,4 12,0 13 7 18 10 ZZW 1023,7 10 0,0
24.05.2017 06:00:00 11,1 8,5 8,6 8 4 11 6 ZZW 1023,5 10 0,0
24.05.2017 05:00:00 11,3 8,4 8,8 5 3 7 4 ZZW 1023,5 10 0,0
24.05.2017 04:00:00 11,2 8,3 9,0 5 3 7 4 ZZW 1023,4 10 0,0
24.05.2017 03:00:00 12,2 8,7 9,7 4 2 7 4 ZW 1023,6 10 0,0
24.05.2017 02:00:00 13,7 8,9 11,2 4 2 7 4 - 1023,8 10 0,0
24.05.2017 01:00:00 14,3 8,7 9,8 2 1 11 6 - 1023,9 10 0,0
24.05.2017 00:00:00 14,8 8,1 8,7 5 3 7 4 N 1023,6 10 0,0
23.05.2017 23:00:00 15,4 7,9 12,0 5 3 14 8 NNW 1023,6 10 0,0
23.05.2017 22:00:00 17,2 6,9 16,1 9 5 - - NNW 1023,2 10 -
23.05.2017 21:00:00 17,7 7,3 16,6 13 7 29 16 NNW 1022,4 10 0,0
23.05.2017 20:00:00 19,2 7,8 18,7 21 11 32 18 NW 1021,7 10 0,0
23.05.2017 19:00:00 20,9 8,5 21,0 21 11 36 19 NNW 1021,1 10 0,0
23.05.2017 18:00:00 21,6 9,4 22,3 21 11 36 19 WNW 1020,7 10 0,0
23.05.2017 17:00:00 21,2 9,1 21,9 15 8 36 19 NW 1020,3 10 0,0
23.05.2017 16:00:00 21,5 11,7 23,4 18 10 36 19 W 1019,9 10 0,0
23.05.2017 15:00:00 22,1 13,4 23,6 15 8 40 21 - 1019,5 10 0,0
23.05.2017 14:00:00 21,3 12,2 23,2 21 11 36 19 W 1019,2 10 0,0
23.05.2017 13:00:00 21,5 11,1 23,7 16 9 32 18 W 1018,8 10 0,0
23.05.2017 12:00:00 21,6 11,7 23,2 16 9 29 16 W 1018,4 10 0,0
23.05.2017 11:00:00 19,9 11,8 21,6 13 7 25 14 WZW 1017,8 10 0,0
23.05.2017 10:00:00 19,5 12,7 20,2 13 7 22 12 W 1017,4 10 0,0
23.05.2017 09:00:00 18,1 11,9 17,7 13 7 22 12 WZW 1017,0 10 0,0
23.05.2017 08:00:00 16,7 11,2 15,7 18 10 22 12 ZZW 1016,4 10 0,0
23.05.2017 07:00:00 15,3 10,1 12,9 11 6 18 10 Z 1016,0 10 0,0
23.05.2017 06:00:00 14,8 10,0 11,7 9 5 18 10 ZZW 1015,9 10 0,0
23.05.2017 05:00:00 14,9 10,2 11,8 11 6 18 10 ZZW 1015,7 10 0,0
23.05.2017 04:00:00 15,3 10,3 12,3 11 6 18 10 ZZW 1015,6 10 0,0
23.05.2017 03:00:00 16,4 10,7 12,3 11 6 18 10 ZZW 1015,2 10 0,0
23.05.2017 02:00:00 15,5 10,5 12,9 13 7 18 10 ZW 1015,0 10 0,0
23.05.2017 01:00:00 17,0 10,9 13,3 13 7 14 8 ZW 1015,3 10 0,0
23.05.2017 00:00:00 17,9 10,4 13,8 8 4 11 6 ZZW 1015,4 10 0,0
22.05.2017 23:00:00 19,1 10,1 14,3 8 4 11 6 O 1015,3 10 0,0
22.05.2017 22:00:00 19,9 10,0 16,6 9 5 29 16 O 1015,2 10 0,0
22.05.2017 21:00:00 21,1 10,1 18,3 11 6 22 12 O 1015,2 10 0,0
22.05.2017 20:00:00 22,8 10,1 21,0 15 8 22 12 ONO 1015,3 10 0,0

tt = temperatuur
td = dauwpunt
tt 5cm = temperatuur 5cm
ff = windsnelheid
fx = windstoten
dd = windrichting
ppp = luchtdruk
vv = zicht
rr = neerslag

Weerstations in de omgeving